Location: Betz
(49.1556°N, 2.9558°E)
Time: 14:40:35
(UTC+00:00)

CZ-2C R/B - Pass Details

Date: 18 September 2019
Orbit: 785 x 870 km, 98.3° (Epoch: 15 October)

Event Time Altitude Azimuth Distance (km) Brightness Sun altitude
Rises 22:10:25 0° 6° (N) 3,425 6.6 -35.4°
Reaches altitude 10° 22:13:04 10° 356° (N) 2,497 5.8 -35.6°
Maximum altitude 22:17:42 28° 299° (WNW) 1,559 4.4 -36.0°
Enters shadow 22:18:22 28° 286° (WNW) 1,585 4.4 -36.0°
